Weather History for KETB - December, 2013

Change the Weather History Date:

Friday, December 6, 2013

  Actual Average Record
Temperature  
Mean Temperature 12 °F -  
Max Temperature 17 °F 34 °F 56 °F (1975)
Min Temperature 6 °F 19 °F -6 °F (1926)
Degree Days  
Heating Degree Days 54    
Moisture  
Dew Point 2 °F    
Average Humidity 67    
Maximum Humidity 79    
Minimum Humidity 49    
Precipitation  
Precipitation 0.00 in - - ()
Sea Level Pressure  
Sea Level Pressure 30.34 in    
Wind  
Wind Speed 11 mph (WNW)    
Max Wind Speed 17 mph    
Max Gust Speed 22 mph    
Visibility 10 miles    
Events Snow    
Averages and records for this station are not official NWS values.
T = Trace of Precipitation, MM = Missing Value Source: NWS Daily Summary

Daily Weather History Graph

Daily Weather History Graph

Search for Another Location

Airport or City:

Trip Planner

Search our weather history database for the weather conditions in past years. The results will help you decide how hot, cold, wet, or windy it might be!

Date:

Astronomy

Dec. 06, 2013 Rise Set
Actual Time 7:10 AM CST 4:16 PM CST
Civil Twilight 6:38 AM CST 4:48 PM CST
Nautical Twilight 6:02 AM CST 5:24 PM CST
Astronomical Twilight 5:28 AM CST 5:59 PM CST
Moon 10:12 AM CST (12/6) 8:52 PM CST (12/6)
Length of Visible Light 10h 10m
Length of Day
9h 05m
Waxing Crescent, 19% of the Moon is Illuminated
Dec 6
Waxing Crescent
Dec 9
First Quarter
Dec 17
Full
Dec 25
Last Quarter
Jan 1
New

Hourly Weather History & Observations

Time (CST) Temp. Windchill Dew Point Humidity Pressure Visibility Wind Dir Wind Speed Gust Speed Precip Events Conditions
12:15 AM 14.0 °F -2.5 °F 5.0 °F 67% 30.21 in 10.0 mi WNW 17.3 mph 21.9 mph N/A   Clear
12:35 AM 14.0 °F -0.8 °F 5.0 °F 67% 30.20 in 10.0 mi WNW 13.8 mph 17.3 mph N/A   Clear
12:55 AM 14.0 °F 2.0 °F 5.0 °F 67% 30.20 in 10.0 mi WNW 9.2 mph - N/A   Clear
1:15 AM 12.2 °F 0.7 °F 5.0 °F 73% 30.21 in 10.0 mi WNW 8.1 mph - N/A   Clear
1:35 AM 12.2 °F -1.0 °F 5.0 °F 73% 30.22 in 10.0 mi WNW 10.4 mph - N/A   Clear
1:55 AM 12.2 °F -2.5 °F 3.2 °F 67% 30.23 in 10.0 mi WNW 12.7 mph 19.6 mph N/A   Clear
2:15 AM 12.2 °F -1.0 °F 3.2 °F 67% 30.23 in 10.0 mi WNW 10.4 mph 17.3 mph N/A   Clear
2:35 AM 10.4 °F -4.8 °F 3.2 °F 73% 30.24 in 10.0 mi WNW 12.7 mph 17.3 mph N/A   Clear
2:55 AM 10.4 °F -5.4 °F 3.2 °F 73% 30.25 in 10.0 mi West 13.8 mph 17.3 mph N/A   Clear
3:15 AM 10.4 °F -3.3 °F 3.2 °F 73% 30.25 in 10.0 mi WNW 10.4 mph - N/A   Clear
3:35 AM 10.4 °F -4.1 °F 3.2 °F 73% 30.26 in 10.0 mi WNW 11.5 mph 18.4 mph N/A   Clear
3:55 AM 10.4 °F -1.5 °F 3.2 °F 73% 30.26 in 10.0 mi West 8.1 mph - N/A   Clear
4:15 AM 10.4 °F -3.3 °F 3.2 °F 73% 30.25 in 10.0 mi West 10.4 mph - N/A Snow Light Snow
4:35 AM 8.6 °F -3.7 °F 3.2 °F 79% 30.27 in 10.0 mi WNW 8.1 mph - N/A   Scattered Clouds
4:55 AM 8.6 °F -5.5 °F 3.2 °F 79% 30.28 in 10.0 mi West 10.4 mph - N/A   Scattered Clouds
5:15 AM 8.6 °F -3.7 °F 1.4 °F 73% 30.27 in 10.0 mi WNW 8.1 mph - N/A   Scattered Clouds
5:35 AM 8.6 °F -4.7 °F 3.2 °F 79% 30.28 in 10.0 mi WNW 9.2 mph - N/A   Clear
5:55 AM 8.6 °F -5.5 °F 1.4 °F 73% 30.28 in 10.0 mi West 10.4 mph - N/A   Scattered Clouds
6:15 AM 8.6 °F -7.7 °F 1.4 °F 73% 30.30 in 10.0 mi West 13.8 mph 17.3 mph N/A   Clear
6:35 AM 8.6 °F -6.3 °F 1.4 °F 73% 30.30 in 10.0 mi West 11.5 mph - N/A   Clear
6:55 AM 8.6 °F -6.3 °F 1.4 °F 73% 30.32 in 10.0 mi West 11.5 mph - N/A   Clear
7:15 AM 8.6 °F -5.5 °F 1.4 °F 73% 30.32 in 10.0 mi West 10.4 mph - N/A   Scattered Clouds
7:35 AM 8.6 °F -3.7 °F 1.4 °F 73% 30.31 in 10.0 mi WNW 8.1 mph - N/A   Scattered Clouds
7:55 AM 8.6 °F -6.3 °F 1.4 °F 73% 30.32 in 10.0 mi West 11.5 mph - N/A   Clear
8:35 AM 8.6 °F -6.3 °F 1.4 °F 73% 30.34 in 10.0 mi West 11.5 mph - N/A   Clear
8:55 AM 8.6 °F -7.7 °F 1.4 °F 73% 30.33 in 10.0 mi West 13.8 mph - N/A   Clear
9:15 AM 8.6 °F -4.7 °F 1.4 °F 73% 30.33 in 10.0 mi WNW 9.2 mph - N/A   Clear
9:35 AM 8.6 °F -5.5 °F 1.4 °F 73% 30.36 in 10.0 mi West 10.4 mph - N/A   Clear
9:55 AM 8.6 °F -6.3 °F 1.4 °F 73% 30.38 in 10.0 mi West 11.5 mph - N/A   Clear
10:15 AM 8.6 °F -5.5 °F 1.4 °F 73% 30.39 in 10.0 mi West 10.4 mph - N/A   Clear
10:35 AM 10.4 °F -3.3 °F 1.4 °F 67% 30.37 in 10.0 mi WNW 10.4 mph 16.1 mph N/A   Clear
10:55 AM 10.4 °F -4.1 °F 1.4 °F 67% 30.37 in 10.0 mi WNW 11.5 mph - N/A   Clear
11:15 AM 10.4 °F -5.4 °F 1.4 °F 67% 30.36 in 10.0 mi West 13.8 mph - N/A   Clear
11:35 AM 12.2 °F -2.5 °F 1.4 °F 62% 30.35 in 10.0 mi West 12.7 mph 16.1 mph N/A   Clear
11:55 AM 12.2 °F -2.5 °F 1.4 °F 62% 30.35 in 10.0 mi NW 12.7 mph - N/A   Clear
12:15 PM 14.0 °F -0.8 °F 3.2 °F 62% 30.34 in 10.0 mi West 13.8 mph - N/A   Clear
12:55 PM 15.8 °F 3.4 °F 3.2 °F 58% 30.30 in 10.0 mi WNW 10.4 mph 17.3 mph N/A   Clear
1:15 PM 15.8 °F 0.9 °F 3.2 °F 58% 30.33 in 10.0 mi WNW 15.0 mph - N/A   Clear
1:35 PM 15.8 °F 2.7 °F 1.4 °F 53% 30.31 in 10.0 mi WNW 11.5 mph 18.4 mph N/A   Clear
1:55 PM 15.8 °F 1.4 °F 1.4 °F 53% 30.32 in 10.0 mi West 13.8 mph - N/A   Clear
2:15 PM 17.6 °F 6.4 °F 1.4 °F 49% 30.34 in 10.0 mi West 9.2 mph - N/A   Clear
2:35 PM 15.8 °F 2.1 °F 1.4 °F 53% 30.34 in 10.0 mi West 12.7 mph - N/A   Clear
2:55 PM 15.8 °F 1.4 °F 1.4 °F 53% 30.35 in 10.0 mi West 13.8 mph - N/A   Clear
3:15 PM 15.8 °F 3.4 °F 1.4 °F 53% 30.35 in 10.0 mi West 10.4 mph - N/A   Clear
3:35 PM 14.0 °F 2.0 °F 1.4 °F 57% 30.36 in 10.0 mi West 9.2 mph - N/A   Clear
3:55 PM 14.0 °F 2.0 °F 1.4 °F 57% 30.37 in 10.0 mi West 9.2 mph - N/A   Clear
4:15 PM 14.0 °F 2.9 °F 1.4 °F 57% 30.36 in 10.0 mi West 8.1 mph - N/A   Clear
4:35 PM 12.2 °F -1.0 °F 1.4 °F 62% 30.37 in 10.0 mi WNW 10.4 mph - N/A   Clear
5:55 PM 12.2 °F 0.7 °F 1.4 °F 62% 30.38 in 10.0 mi WNW 8.1 mph - N/A   Clear
6:15 PM 12.2 °F 0.7 °F 1.4 °F 62% 30.39 in 10.0 mi WNW 8.1 mph - N/A   Clear
6:35 PM 10.4 °F -2.4 °F 1.4 °F 67% 30.39 in 10.0 mi WNW 9.2 mph - N/A   Clear
6:55 PM 10.4 °F -0.4 °F 1.4 °F 67% 30.40 in 10.0 mi WNW 6.9 mph - N/A   Clear
7:15 PM 10.4 °F -4.1 °F 1.4 °F 67% 30.41 in 10.0 mi West 11.5 mph - N/A   Clear
7:35 PM 10.4 °F -3.3 °F 1.4 °F 67% 30.41 in 10.0 mi WNW 10.4 mph - N/A   Clear
7:55 PM 10.4 °F -0.4 °F 1.4 °F 67% 30.42 in 10.0 mi WNW 6.9 mph - N/A   Clear
8:15 PM 10.4 °F -2.4 °F 1.4 °F 67% 30.43 in 10.0 mi WNW 9.2 mph - N/A   Clear
8:35 PM 10.4 °F 0.8 °F 1.4 °F 67% 30.44 in 10.0 mi WNW 5.8 mph - N/A   Clear
8:55 PM 10.4 °F -1.5 °F -0.4 °F 62% 30.44 in 10.0 mi WNW 8.1 mph - N/A   Clear
9:15 PM 8.6 °F -6.3 °F -0.4 °F 67% 30.45 in 10.0 mi NW 11.5 mph 16.1 mph N/A   Clear
9:35 PM 8.6 °F -7.0 °F -0.4 °F 67% 30.45 in 10.0 mi NW 12.7 mph 20.7 mph N/A   Clear
9:55 PM 8.6 °F -4.7 °F -0.4 °F 67% 30.46 in 10.0 mi WNW 9.2 mph - N/A   Clear
10:15 PM 8.6 °F -1.3 °F -0.4 °F 67% 30.46 in 10.0 mi WNW 5.8 mph - N/A   Clear
10:35 PM 8.6 °F -4.7 °F -0.4 °F 67% 30.46 in 10.0 mi WNW 9.2 mph - N/A   Clear
10:55 PM 8.6 °F -5.5 °F -0.4 °F 67% 30.47 in 10.0 mi WNW 10.4 mph 16.1 mph N/A   Clear
11:15 PM 8.6 °F -7.7 °F -0.4 °F 67% 30.48 in 10.0 mi NW 13.8 mph 21.9 mph N/A   Clear
11:35 PM 6.8 °F -6.9 °F -0.4 °F 72% 30.48 in 10.0 mi WNW 9.2 mph 19.6 mph N/A   Clear
11:55 PM 6.8 °F -8.6 °F -0.4 °F 72% 30.49 in 10.0 mi WNW 11.5 mph 18.4 mph N/A   Clear